26-09-2023, 00:00:07,    149,    0.0,   11.1,   0.00,   0.00, 1015.5,    0.4, -999.0
26-09-2023, 00:00:16,    149,    0.0,   11.1,   0.00,   0.00, 1015.5,    0.3, -999.0
26-09-2023, 00:00:27,    149,    0.0,   11.1,   0.00,   0.00, 1015.5,    0.4, -999.0
26-09-2023, 00:00:37,    150,    0.0,   11.1,   0.00,   0.00, 1015.5,    0.0, -999.0
26-09-2023, 00:00:47,    149,    0.0,   11.1,   0.00,   0.00, 1015.5,    0.4, -999.0
26-09-2023, 00:00:57,    150,    0.0,   11.1,   0.00,   0.00, 1015.5,    0.5, -999.0
26-09-2023, 00:01:07,    149,    0.0,   11.1,   0.00,   0.00, 1015.5,    0.2, -999.0
26-09-2023, 00:01:17,    150,    0.0,   11.1,   0.00,   0.00, 1015.5,    0.5, -999.0
26-09-2023, 00:01:26,    149,    0.0,   11.1,   0.00,   0.00, 1015.5,    0.3, -999.0
26-09-2023, 00:01:36,    149,    0.0,   11.2,   0.00,   0.00, 1015.5,    0.3, -999.0
26-09-2023, 00:01:47,    149,    0.0,   11.1,   0.00,   0.00, 1015.5,    0.6, -999.0
26-09-2023, 00:01:56,    149,    0.0,   11.1,   0.00,   0.00, 1015.5,    0.2, -999.0
26-09-2023, 00:02:06,    149,    0.0,   11.1,   0.00,   0.00, 1015.5,    0.1, -999.0
26-09-2023, 00:02:16,    149,    0.0,   11.1,   0.00,   0.00, 1015.5,    0.3, -999.0
26-09-2023, 00:02:27,    149,    0.0,   11.1,   0.00,   0.00, 1015.5,    0.4, -999.0
26-09-2023, 00:02:36,    149,    0.0,   11.0,   0.00,   0.00, 1015.5,    0.6, -999.0
26-09-2023, 00:02:46,    150,    0.0,   11.1,   0.00,   0.00, 1015.5,    0.5, -999.0
26-09-2023, 00:02:56,    149,    0.0,   11.1,   0.00,   0.00, 1015.5,    0.4, -999.0
26-09-2023, 00:03:06,    148,    0.0,   11.1,   0.00,   0.00, 1015.5,    0.2, -999.0
26-09-2023, 00:03:16,    149,    0.0,   11.1,   0.00,   0.00, 1015.5,    0.8, -999.0
26-09-2023, 00:03:26,    149,    0.0,   11.1,   0.00,   0.00, 1015.6,    0.2, -999.0
26-09-2023, 00:03:36,    149,    0.0,   11.1,   0.00,   0.00, 1015.5,    0.6, -999.0
26-09-2023, 00:03:46,    149,    0.0,   11.1,   0.00,   0.00, 1015.5,    0.2, -999.0
26-09-2023, 00:03:56,    149,    0.0,   11.0,   0.00,   0.00, 1015.6,    0.7, -999.0
26-09-2023, 00:04:06,    149,    0.4,   11.1,   0.00,   0.00, 1015.6,    0.5, -999.0
26-09-2023, 00:04:16,    149,    0.0,   11.1,   0.00,   0.00, 1015.6,    0.1, -999.0
26-09-2023, 00:04:26,    149,    0.0,   11.0,   0.00,   0.00, 1015.6,    0.4, -999.0
26-09-2023, 00:04:36,    149,    0.0,   11.0,   0.00,   0.00, 1015.5,    0.1, -999.0
26-09-2023, 00:04:46,    149,    0.0,   11.0,   0.00,   0.00, 1015.5,    0.4, -999.0
26-09-2023, 00:04:56,    149,    0.0,   11.0,   0.00,   0.00, 1015.6,    0.7, -999.0
26-09-2023, 00:05:06,    149,    0.0,   11.0,   0.00,   0.00, 1015.6,    0.5, -999.0
26-09-2023, 00:05:16,    150,    0.0,   11.0,   0.00,   0.00, 1015.6,    0.1, -999.0
26-09-2023, 00:05:26,    149,    0.0,   11.0,   0.00,   0.00, 1015.6,    0.2, -999.0
26-09-2023, 00:05:36,    149,    0.0,   11.1,   0.00,   0.00, 1015.6,    0.1, -999.0
26-09-2023, 00:05:46,    150,    0.0,   11.1,   0.00,   0.00, 1015.6,    0.1, -999.0
26-09-2023, 00:05:56,    149,    0.0,   11.0,   0.00,   0.00, 1015.6,    0.5, -999.0
26-09-2023, 00:06:06,    150,    0.0,   11.0,   0.00,   0.00, 1015.6,    0.1, -999.0
26-09-2023, 00:06:16,    149,    0.0,   11.0,   0.00,   0.00, 1015.7,    0.5, -999.0
26-09-2023, 00:06:26,    150,    0.0,   11.0,   0.00,   0.00, 1015.6,    0.2, -999.0
26-09-2023, 00:06:36,    149,    0.0,   11.1,   0.00,   0.00, 1015.7,    0.3, -999.0
26-09-2023, 00:06:45,    149,    0.0,   11.1,   0.00,   0.00, 1015.6,    0.5, -999.0
26-09-2023, 00:06:56,    149,    0.0,   11.0,   0.00,   0.00, 1015.7,    0.3, -999.0
26-09-2023, 00:07:06,    149,    0.0,   11.1,   0.00,   0.00, 1015.7,    0.3, -999.0
26-09-2023, 00:07:16,    149,    0.0,   11.1,   0.00,   0.00, 1015.7,    0.2, -999.0
26-09-2023, 00:07:25,    149,    0.0,   11.1,   0.00,   0.00, 1015.7,    0.3, -999.0
26-09-2023, 00:07:36,    150,    0.0,   11.1,   0.00,   0.00, 1015.7,    0.4, -999.0
26-09-2023, 00:07:46,    149,    0.0,   11.1,   0.00,   0.00, 1015.7,    0.5, -999.0
26-09-2023, 00:07:55,    149,    0.0,   11.0,   0.00,   0.00, 1015.7,    0.5, -999.0
26-09-2023, 00:08:05,    149,    0.0,   11.0,   0.00,   0.00, 1015.7,    0.4, -999.0
26-09-2023, 00:08:16,    149,    0.0,   11.1,   0.00,   0.00, 1015.7,    0.4, -999.0
26-09-2023, 00:08:25,    149,    0.0,   11.0,   0.00,   0.00, 1015.7,    0.7, -999.0
26-09-2023, 00:08:35,    149,    0.0,   11.0,   0.00,   0.00, 1015.7,    0.3, -999.0
26-09-2023, 00:08:46,    150,    0.0,   11.0,   0.00,   0.00, 1015.7,    0.3, -999.0
26-09-2023, 00:08:56,    149,    0.5,   11.1,   0.00,   0.00, 1015.7,    0.1, -999.0
26-09-2023, 00:09:05,    149,    1.1,   11.1,   0.00,   0.00, 1015.8,    0.6, -999.0
26-09-2023, 00:09:15,    149,    0.2,   11.1,   0.00,   0.00, 1015.7,    0.2, -999.0
26-09-2023, 00:09:26,    149,    0.0,   11.0,   0.00,   0.00, 1015.7,    0.5, -999.0
26-09-2023, 00:09:35,    149,    0.0,   11.0,   0.00,   0.00, 1015.6,    0.4, -999.0
26-09-2023, 00:09:45,    149,    0.0,   11.0,   0.00,   0.00, 1015.7,    0.4, -999.0
26-09-2023, 00:09:55,    149,    0.0,   11.0,   0.00,   0.00, 1015.6,    0.2, -999.0
26-09-2023, 00:10:05,    149,    0.0,   11.0,   0.00,   0.00, 1015.6,    0.3, -999.0
26-09-2023, 00:10:15,    150,    0.0,   11.1,   0.00,   0.00, 1015.6,    0.3, -999.0
26-09-2023, 00:10:25,    149,    0.0,   11.1,   0.00,   0.00, 1015.7,    0.4, -999.0
26-09-2023, 00:10:35,    149,    0.0,   11.0,   0.00,   0.00, 1015.6,    0.3, -999.0
26-09-2023, 00:10:45,    149,    0.0,   11.0,   0.00,   0.00, 1015.7,    0.5, -999.0
26-09-2023, 00:10:55,    149,    0.0,   11.0,   0.00,   0.00, 1015.7,    0.4, -999.0
26-09-2023, 00:11:05,    149,    0.0,   11.0,   0.00,   0.00, 1015.7,    0.2, -999.0
26-09-2023, 00:11:15,    149,    0.0,   11.0,   0.00,   0.00, 1015.7,    0.5, -999.0
26-09-2023, 00:11:25,    149,    0.0,   10.9,   0.00,   0.00, 1015.7,    0.6, -999.0
26-09-2023, 00:11:35,    149,    0.0,   11.0,   0.00,   0.00, 1015.7,    0.3, -999.0
26-09-2023, 00:11:45,    149,    0.0,   11.0,   0.00,   0.00, 1015.7,    0.3, -999.0
26-09-2023, 00:11:55,    149,    0.0,   11.0,   0.00,   0.00, 1015.7,    0.4, -999.0
26-09-2023, 00:12:05,    149,    0.0,   11.0,   0.00,   0.00, 1015.7,    0.4, -999.0
26-09-2023, 00:12:15,    149,    0.0,   11.0,   0.00,   0.00, 1015.7,    0.3, -999.0
26-09-2023, 00:12:25,    149,    0.4,   11.0,   0.00,   0.00, 1015.8,    0.3, -999.0
26-09-2023, 00:12:35,    149,    0.1,   11.1,   0.00,   0.00, 1015.7,    0.4, -999.0
26-09-2023, 00:12:45,    149,    0.3,   11.0,   0.00,   0.00, 1015.7,    0.1, -999.0
26-09-2023, 00:12:55,    149,    0.1,   11.1,   0.00,   0.00, 1015.7,    0.3, -999.0
26-09-2023, 00:13:05,    149,    0.0,   11.0,   0.00,   0.00, 1015.7,    0.3, -999.0
26-09-2023, 00:13:15,    149,    0.0,   11.0,   0.00,   0.00, 1015.7,    0.2, -999.0
26-09-2023, 00:13:25,    149,    0.0,   11.0,   0.00,   0.00, 1015.7,    0.3, -999.0
26-09-2023, 00:13:35,    149,    0.0,   11.1,   0.00,   0.00, 1015.7,    0.3, -999.0
26-09-2023, 00:13:45,    149,    0.0,   11.1,   0.00,   0.00, 1015.7,    0.3, -999.0
26-09-2023, 00:13:54,    149,    0.0,   11.1,   0.00,   0.00, 1015.7,    0.2, -999.0
26-09-2023, 00:14:05,    149,    0.0,   11.0,   0.00,   0.00, 1015.7,    0.3, -999.0
26-09-2023, 00:14:15,    149,    0.0,   11.0,   0.00,   0.00, 1015.7,    0.3, -999.0
26-09-2023, 00:14:25,    149,    0.0,   11.0,   0.00,   0.00, 1015.7,    0.3, -999.0
26-09-2023, 00:14:34,    149,    0.0,   11.0,   0.00,   0.00, 1015.7,    0.4, -999.0
26-09-2023, 00:14:45,    149,    0.0,   11.0,   0.00,   0.00, 1015.6,    0.3, -999.0
26-09-2023, 00:14:55,    149,    0.0,   11.1,   0.00,   0.00, 1015.7,    0.3, -999.0
26-09-2023, 00:15:04,    149,    0.0,   11.1,   0.00,   0.00, 1015.6,    0.4, -999.0
26-09-2023, 00:15:14,    149,    0.0,   11.0,   0.00,   0.00, 1015.6,    0.3, -999.0
26-09-2023, 00:15:25,    149,    0.0,   11.0,   0.00,   0.00, 1015.6,    0.3, -999.0
26-09-2023, 00:15:34,    149,    0.0,   11.0,   0.00,   0.00, 1015.6,    0.3, -999.0
26-09-2023, 00:15:44,    148,    0.0,   11.0,   0.00,   0.00, 1015.6,    0.5, -999.0
26-09-2023, 00:15:54,    149,    0.0,   11.0,   0.00,   0.00, 1015.6,    0.4, -999.0
26-09-2023, 00:16:05,    149,    0.0,   10.9,   0.00,   0.00, 1015.6,    0.4, -999.0
26-09-2023, 00:16:14,    149,    0.0,   11.0,   0.00,   0.00, 1015.6,    0.3, -999.0
26-09-2023, 00:16:24,    149,    0.0,   11.0,   0.00,   0.00, 1015.7,    0.2, -999.0
26-09-2023, 00:16:34,    149,    0.0,   11.0,   0.00,   0.00, 1015.6,    0.3, -999.0
26-09-2023, 00:16:44,    149,    0.0,   11.0,   0.00,   0.00, 1015.6,    0.4, -999.0
26-09-2023, 00:16:54,    149,    0.0,   11.0,   0.00,   0.00, 1015.6,    0.1, -999.0
26-09-2023, 00:17:04,    149,    0.0,   11.0,   0.00,   0.00, 1015.6,    0.3, -999.0
26-09-2023, 00:17:14,    149,    0.0,   11.0,   0.00,   0.00, 1015.6,    0.4, -999.0
26-09-2023, 00:17:24,    149,    0.0,   10.9,   0.00,   0.00, 1015.6,    0.3, -999.0
26-09-2023, 00:17:34,    149,    0.0,   11.0,   0.00,   0.00, 1015.6,    0.4, -999.0
26-09-2023, 00:17:44,    148,    0.0,   11.0,   0.00,   0.00, 1015.6,    0.4, -999.0
26-09-2023, 00:17:54,    149,    0.0,   11.0,   0.00,   0.00, 1015.6,    0.4, -999.0
26-09-2023, 00:18:04,    149,    0.0,   11.0,   0.00,   0.00, 1015.5,    0.4, -999.0
26-09-2023, 00:18:14,    149,    0.0,   11.0,   0.00,   0.00, 1015.6,    0.4, -999.0
26-09-2023, 00:18:24,    149,    0.0,   11.0,   0.00,   0.00, 1015.6,    0.4, -999.0
26-09-2023, 00:18:34,    149,    0.0,   11.0,   0.00,   0.00, 1015.5,    0.5, -999.0
26-09-2023, 00:18:44,    149,    0.0,   10.9,   0.00,   0.00, 1015.5,    0.2, -999.0
26-09-2023, 00:18:54,    149,    0.0,   11.0,   0.00,   0.00, 1015.5,    0.4, -999.0
26-09-2023, 00:19:04,    149,    0.0,   11.0,   0.00,   0.00, 1015.5,    0.4, -999.0
26-09-2023, 00:19:14,    149,    0.0,   11.0,   0.00,   0.00, 1015.5,    0.3, -999.0
26-09-2023, 00:19:24,    149,    0.0,   11.0,   0.00,   0.00, 1015.5,    0.3, -999.0
26-09-2023, 00:19:34,    149,    0.0,   11.0,   0.00,   0.00, 1015.5,    0.4, -999.0
26-09-2023, 00:19:44,    149,    0.0,   11.0,   0.00,   0.00, 1015.5,    0.3, -999.0
26-09-2023, 00:19:54,    149,    0.0,   11.0,   0.00,   0.00, 1015.5,    0.4, -999.0
26-09-2023, 00:20:04,    149,    0.0,   11.0,   0.00,   0.00, 1015.5,    0.2, -999.0
26-09-2023, 00:20:14,    148,    0.0,   11.0,   0.00,   0.00, 1015.5,    0.2, -999.0
26-09-2023, 00:20:24,    149,    0.0,   11.1,   0.00,   0.00, 1015.5,    0.5, -999.0
26-09-2023, 00:20:34,    149,    0.0,   11.1,   0.00,   0.00, 1015.5,    0.2, -999.0
26-09-2023, 00:20:44,    149,    0.0,   11.1,   0.00,   0.00, 1015.5,    0.4, -999.0
26-09-2023, 00:20:54,    149,    0.0,   11.1,   0.00,   0.00, 1015.5,    0.3, -999.0
26-09-2023, 00:21:03,    149,    0.0,   11.1,   0.00,   0.00, 1015.5,    0.4, -999.0
26-09-2023, 00:21:14,    149,    0.0,   11.0,   0.00,   0.00, 1015.5,    0.2, -999.0
26-09-2023, 00:21:24,    149,    0.0,   11.0,   0.00,   0.00, 1015.5,    0.5, -999.0
26-09-2023, 00:21:33,    149,    0.0,   11.0,   0.00,   0.00, 1015.5,    0.3, -999.0
26-09-2023, 00:21:43,    149,    0.0,   11.0,   0.00,   0.00, 1015.5,    0.5, -999.0
26-09-2023, 00:21:54,    149,    0.0,   11.0,   0.00,   0.00, 1015.5,    0.4, -999.0
26-09-2023, 00:22:04,    149,    0.0,   11.0,   0.00,   0.00, 1015.5,    0.3, -999.0
26-09-2023, 00:22:13,    149,    0.0,   11.0,   0.00,   0.00, 1015.5,    0.5, -999.0
26-09-2023, 00:22:23,    149,    0.0,   11.0,   0.00,   0.00, 1015.5,    0.3, -999.0
26-09-2023, 00:22:34,    149,    0.0,   11.0,   0.00,   0.00, 1015.5,    0.2, -999.0
26-09-2023, 00:22:43,    149,    0.0,   10.9,   0.00,   0.00, 1015.5,    0.3, -999.0
26-09-2023, 00:22:53,    148,    0.0,   11.0,   0.00,   0.00, 1015.5,    0.4, -999.0
26-09-2023, 00:23:03,    149,    0.0,   11.0,   0.00,   0.00, 1015.5,    0.3, -999.0
26-09-2023, 00:23:14,    149,    0.0,   11.0,   0.00,   0.00, 1015.5,    0.4, -999.0
26-09-2023, 00:23:23,    149,    0.0,   11.0,   0.00,   0.00, 1015.5,    0.2, -999.0
26-09-2023, 00:23:33,    148,    0.3,   11.0,   0.00,   0.00, 1015.6,    0.3, -999.0
26-09-2023, 00:23:43,    149,    0.9,   11.1,   0.00,   0.00, 1015.6,    0.5, -999.0
26-09-2023, 00:23:53,    149,    0.8,   11.1,   0.00,   0.00, 1015.6,    0.6, -999.0
26-09-2023, 00:24:03,    149,    0.0,   11.0,   0.00,   0.00, 1015.5,    0.3, -999.0
26-09-2023, 00:24:13,    149,    0.0,   11.0,   0.00,   0.00, 1015.5,    0.5, -999.0
26-09-2023, 00:24:23,    149,    0.0,   11.0,   0.00,   0.00, 1015.5,    0.3, -999.0
26-09-2023, 00:24:33,    148,    0.0,   11.0,   0.00,   0.00, 1015.5,    0.5, -999.0
26-09-2023, 00:24:43,    149,    0.0,   11.0,   0.00,   0.00, 1015.5,    0.3, -999.0
26-09-2023, 00:24:53,    149,    0.0,   11.0,   0.00,   0.00, 1015.5,    0.3, -999.0
26-09-2023, 00:25:03,    149,    0.0,   11.0,   0.00,   0.00, 1015.5,    0.3, -999.0
26-09-2023, 00:25:13,    149,    0.0,   11.0,   0.00,   0.00, 1015.5,    0.3, -999.0
26-09-2023, 00:25:23,    149,    0.0,   11.0,   0.00,   0.00, 1015.5,    0.3, -999.0
26-09-2023, 00:25:33,    149,    0.0,   11.0,   0.00,   0.00, 1015.5,    0.4, -999.0
26-09-2023, 00:25:43,    149,    0.0,   10.9,   0.00,   0.00, 1015.5,    0.4, -999.0
26-09-2023, 00:25:53,    149,    0.0,   11.0,   0.00,   0.00, 1015.5,    0.3, -999.0
26-09-2023, 00:26:03,    149,    0.0,   11.0,   0.00,   0.00, 1015.5,    0.4, -999.0
26-09-2023, 00:26:13,    149,    0.0,   11.0,   0.00,   0.00, 1015.6,    0.3, -999.0
26-09-2023, 00:26:23,    149,    0.1,   10.9,   0.00,   0.00, 1015.6,    0.3, -999.0
26-09-2023, 00:26:33,    149,    0.2,   11.0,   0.00,   0.00, 1015.6,    0.6, -999.0
26-09-2023, 00:26:43,    149,    0.0,   11.0,   0.00,   0.00, 1015.5,    0.3, -999.0
26-09-2023, 00:26:53,    149,    0.0,   11.0,   0.00,   0.00, 1015.5,    0.3, -999.0
26-09-2023, 00:27:03,    149,    0.0,   11.0,   0.00,   0.00, 1015.5,    0.4, -999.0
26-09-2023, 00:27:13,    149,    0.0,   11.0,   0.00,   0.00, 1015.5,    0.3, -999.0
26-09-2023, 00:27:23,    150,    0.0,   11.1,   0.00,   0.00, 1015.5,    0.6, -999.0
26-09-2023, 00:27:32,    149,    0.0,   11.0,   0.00,   0.00, 1015.5,    0.5, -999.0
26-09-2023, 00:27:43,    149,    0.0,   11.0,   0.00,   0.00, 1015.5,    0.4, -999.0
26-09-2023, 00:27:53,    149,    0.0,   11.0,   0.00,   0.00, 1015.5,    0.4, -999.0
26-09-2023, 00:28:03,    149,    0.0,   11.0,   0.00,   0.00, 1015.5,    0.3, -999.0
26-09-2023, 00:28:12,    149,    0.0,   11.0,   0.00,   0.00, 1015.5,    0.4, -999.0
26-09-2023, 00:28:23,    149,    0.0,   11.0,   0.00,   0.00, 1015.5,    0.4, -999.0
26-09-2023, 00:28:33,    149,    0.0,   11.0,   0.00,   0.00, 1015.5,    0.2, -999.0
26-09-2023, 00:28:42,    149,    0.0,   11.0,   0.00,   0.00, 1015.5,    0.5, -999.0
26-09-2023, 00:28:52,    149,    0.2,   11.0,   0.00,   0.00, 1015.6,    0.4, -999.0
26-09-2023, 00:29:03,    149,    0.1,   11.1,   0.00,   0.00, 1015.5,    0.1, -999.0
26-09-2023, 00:29:12,    149,    0.0,   11.0,   0.00,   0.00, 1015.5,    0.4, -999.0
26-09-2023, 00:29:22,    149,    0.0,   11.0,   0.00,   0.00, 1015.5,    0.7, -999.0
26-09-2023, 00:29:33,    149,    0.0,   11.0,   0.00,   0.00, 1015.5,    0.2, -999.0
26-09-2023, 00:29:43,    149,    0.0,   10.9,   0.00,   0.00, 1015.5,    0.5, -999.0
26-09-2023, 00:29:52,    149,    0.0,   10.9,   0.00,   0.00, 1015.5,    0.0, -999.0
26-09-2023, 00:30:02,    149,    0.0,   11.0,   0.00,   0.00, 1015.5,    0.5, -999.0
26-09-2023, 00:30:13,    149,    0.0,   11.0,   0.00,   0.00, 1015.5,    0.3, -999.0
26-09-2023, 00:30:22,    149,    0.0,   10.9,   0.00,   0.00, 1015.5,    0.5, -999.0
26-09-2023, 00:30:32,    149,    0.0,   11.0,   0.00,   0.00, 1015.5,    0.6, -999.0
26-09-2023, 00:30:42,    149,    0.0,   11.0,   0.00,   0.00, 1015.5,    0.7, -999.0
26-09-2023, 00:30:52,    149,    0.0,   11.0,   0.00,   0.00, 1015.5,    0.8, -999.0
26-09-2023, 00:31:02,    149,    0.0,   11.0,   0.00,   0.00, 1015.5,    0.0, -999.0
26-09-2023, 00:31:12,    149,    0.0,   10.9,   0.00,   0.00, 1015.5,    0.6, -999.0
26-09-2023, 00:31:22,    149,    0.0,   11.0,   0.00,   0.00, 1015.5,    0.3, -999.0
26-09-2023, 00:31:32,    148,    0.0,   10.9,   0.00,   0.00, 1015.5,    0.2, -999.0
26-09-2023, 00:31:42,    149,    0.0,   10.9,   0.00,   0.00, 1015.5,    0.4, -999.0
26-09-2023, 00:31:52,    149,    0.0,   11.0,   0.00,   0.00, 1015.5,    0.2, -999.0
26-09-2023, 00:32:02,    149,    0.0,   11.0,   0.00,   0.00, 1015.5,    0.6, -999.0
26-09-2023, 00:32:12,    149,    0.0,   11.0,   0.00,   0.00, 1015.5,    0.3, -999.0
26-09-2023, 00:32:22,    149,    0.0,   10.9,   0.00,   0.00, 1015.5,    0.3, -999.0
26-09-2023, 00:32:32,    149,    0.0,   11.0,   0.00,   0.00, 1015.4,    0.2, -999.0
26-09-2023, 00:32:42,    149,    0.0,   11.0,   0.00,   0.00, 1015.4,    0.5, -999.0
26-09-2023, 00:32:52,    149,    0.0,   11.0,   0.00,   0.00, 1015.4,    0.4, -999.0
26-09-2023, 00:33:02,    149,    0.0,   10.9,   0.00,   0.00, 1015.5,    0.2, -999.0
26-09-2023, 00:33:12,    149,    0.0,   10.9,   0.00,   0.00, 1015.4,    0.4, -999.0
26-09-2023, 00:33:22,    149,    0.0,   11.0,   0.00,   0.00, 1015.5,    0.2, -999.0
26-09-2023, 00:33:32,    149,    0.0,   11.0,   0.00,   0.00, 1015.4,    0.4, -999.0
26-09-2023, 00:33:42,    148,    0.0,   11.1,   0.00,   0.00, 1015.5,    0.5, -999.0
26-09-2023, 00:33:52,    148,    0.0,   11.0,   0.00,   0.00, 1015.4,    0.3, -999.0
26-09-2023, 00:34:02,    149,    0.0,   11.0,   0.00,   0.00, 1015.4,    0.5, -999.0
26-09-2023, 00:34:12,    149,    0.0,   11.0,   0.00,   0.00, 1015.5,    0.4, -999.0
26-09-2023, 00:34:22,    149,    0.0,   11.0,   0.00,   0.00, 1015.4,    0.4, -999.0
26-09-2023, 00:34:32,    149,    0.0,   11.0,   0.00,   0.00, 1015.4,    0.3, -999.0
26-09-2023, 00:34:42,    149,    0.0,   11.0,   0.00,   0.00, 1015.4,    0.3, -999.0
26-09-2023, 00:34:52,    149,    0.0,   11.0,   0.00,   0.00, 1015.4,    0.4, -999.0
26-09-2023, 00:35:02,    149,    0.0,   11.0,   0.00,   0.00, 1015.4,    0.2, -999.0
26-09-2023, 00:35:13,    149,    0.0,   11.0,   0.00,   0.00, 1015.4,    0.6, -999.0
26-09-2023, 00:35:21,    149,    0.0,   11.0,   0.00,   0.00, 1015.4,    0.4, -999.0
26-09-2023, 00:35:32,    149,    0.0,   11.1,   0.00,   0.00, 1015.4,    0.3, -999.0
26-09-2023, 00:35:42,    148,    1.3,   11.1,   0.00,   0.00, 1015.6,    0.3, -999.0
26-09-2023, 00:35:51,    148,    0.5,   11.1,   0.00,   0.00, 1015.5,    0.5, -999.0
26-09-2023, 00:36:01,    149,    0.0,   11.0,   0.00,   0.00, 1015.4,    0.4, -999.0
26-09-2023, 00:36:12,    149,    0.0,   11.0,   0.00,   0.00, 1015.4,    0.4, -999.0
26-09-2023, 00:36:21,    149,    0.6,   11.1,   0.00,   0.00, 1015.5,    0.4, -999.0
26-09-2023, 00:36:31,    149,    0.9,   11.0,   0.00,   0.00, 1015.5,    0.5, -999.0
26-09-2023, 00:36:42,    149,    0.6,   11.0,   0.00,   0.00, 1015.5,    0.3, -999.0
26-09-2023, 00:36:52,    148,    0.0,   11.0,   0.00,   0.00, 1015.4,    0.4, -999.0
26-09-2023, 00:37:01,    149,    0.0,   11.0,   0.00,   0.00, 1015.4,    0.3, -999.0
26-09-2023, 00:37:11,    148,    0.0,   11.0,   0.00,   0.00, 1015.4,    0.3, -999.0
26-09-2023, 00:37:22,    149,    0.0,   11.0,   0.00,   0.00, 1015.4,    0.2, -999.0
26-09-2023, 00:37:31,    148,    0.0,   11.1,   0.00,   0.00, 1015.4,    0.4, -999.0
26-09-2023, 00:37:41,    148,    0.0,   11.1,   0.00,   0.00, 1015.3,    0.4, -999.0
26-09-2023, 00:37:51,    149,    0.0,   11.1,   0.00,   0.00, 1015.4,    0.1, -999.0
26-09-2023, 00:38:01,    149,    0.8,   11.1,   0.00,   0.00, 1015.4,    0.5, -999.0
26-09-2023, 00:38:11,    149,    0.3,   11.1,   0.00,   0.00, 1015.4,    0.2, -999.0
26-09-2023, 00:38:21,    148,    0.1,   11.1,   0.00,   0.00, 1015.4,    0.4, -999.0
26-09-2023, 00:38:31,    148,    0.0,   11.0,   0.00,   0.00, 1015.4,    0.3, -999.0
26-09-2023, 00:38:41,    149,    0.7,   11.1,   0.00,   0.00, 1015.4,    0.5, -999.0
26-09-2023, 00:38:51,    148,    1.1,   11.2,   0.00,   0.00, 1015.5,    0.3, -999.0
26-09-2023, 00:39:01,    156,    0.6,   11.1,   0.00,   0.00, 1015.5,    0.6, -999.0
26-09-2023, 00:39:11,    156,    0.0,   11.0,   0.00,   0.00, 1015.3,    0.4, -999.0
26-09-2023, 00:39:21,    156,    0.0,   11.1,   0.00,   0.00, 1015.4,    0.3, -999.0
26-09-2023, 00:39:31,    158,    0.2,   11.0,   0.00,   0.00, 1015.4,    0.5, -999.0
26-09-2023, 00:39:41,    158,    0.0,   11.0,   0.00,   0.00, 1015.4,    0.3, -999.0
26-09-2023, 00:39:51,    158,    0.0,   11.0,   0.00,   0.00, 1015.4,    0.3, -999.0
26-09-2023, 00:40:01,    156,    1.3,   11.1,   0.00,   0.00, 1015.5,    0.3, -999.0
26-09-2023, 00:40:11,    156,    1.3,   11.2,   0.00,   0.00, 1015.5,    1.0, -999.0
26-09-2023, 00:40:21,    157,    0.0,   11.0,   0.00,   0.00, 1015.3,    0.3, -999.0
26-09-2023, 00:40:31,    156,    0.0,   11.0,   0.00,   0.00, 1015.4,    0.4, -999.0
26-09-2023, 00:40:41,    157,    0.2,   11.0,   0.00,   0.00, 1015.4,    0.2, -999.0
26-09-2023, 00:40:51,    156,    0.0,   10.9,   0.00,   0.00, 1015.3,    0.3, -999.0
26-09-2023, 00:41:01,    156,    0.0,   11.0,   0.00,   0.00, 1015.4,    0.4, -999.0
26-09-2023, 00:41:11,    157,    0.5,   11.1,   0.00,   0.00, 1015.4,    0.4, -999.0
26-09-2023, 00:41:21,    156,    0.2,   11.1,   0.00,   0.00, 1015.4,    0.4, -999.0
26-09-2023, 00:41:31,    156,    0.0,   11.0,   0.00,   0.00, 1015.3,    0.2, -999.0
26-09-2023, 00:41:41,    156,    0.0,   11.0,   0.00,   0.00, 1015.3,    0.4, -999.0
26-09-2023, 00:41:50,    156,    0.0,   11.0,   0.00,   0.00, 1015.3,    0.3, -999.0
26-09-2023, 00:42:01,    157,    0.0,   11.1,   0.00,   0.00, 1015.3,    0.2, -999.0
26-09-2023, 00:42:11,    156,    0.0,   11.0,   0.00,   0.00, 1015.3,    0.4, -999.0
26-09-2023, 00:42:20,    156,    0.0,   11.1,   0.00,   0.00, 1015.3,    0.3, -999.0
26-09-2023, 00:42:31,    156,    0.0,   11.1,   0.00,   0.00, 1015.3,    0.3, -999.0
26-09-2023, 00:42:41,    156,    0.0,   11.0,   0.00,   0.00, 1015.3,    0.3, -999.0
26-09-2023, 00:42:51,    156,    0.6,   11.1,   0.00,   0.00, 1015.4,    0.5, -999.0
26-09-2023, 00:43:00,    156,    0.7,   11.2,   0.00,   0.00, 1015.4,    0.5, -999.0
26-09-2023, 00:43:11,    156,    0.1,   11.1,   0.00,   0.00, 1015.3,    0.3, -999.0
26-09-2023, 00:43:21,    156,    0.0,   11.2,   0.00,   0.00, 1015.3,    0.4, -999.0
26-09-2023, 00:43:30,    156,    0.2,   11.1,   0.00,   0.00, 1015.4,    0.5, -999.0
26-09-2023, 00:43:40,    156,    0.1,   11.2,   0.00,   0.00, 1015.3,    0.5, -999.0
26-09-2023, 00:43:51,    156,    0.0,   11.1,   0.00,   0.00, 1015.3,    0.5, -999.0
26-09-2023, 00:44:00,    156,    0.0,   11.1,   0.00,   0.00, 1015.3,    0.3, -999.0
26-09-2023, 00:44:10,    156,    0.3,   11.1,   0.00,   0.00, 1015.4,    0.4, -999.0
26-09-2023, 00:44:20,    156,    0.8,   11.2,   0.00,   0.00, 1015.4,    0.1, -999.0
26-09-2023, 00:44:30,    156,    0.6,   11.2,   0.00,   0.00, 1015.4,    0.3, -999.0
26-09-2023, 00:44:40,    135,    1.5,   11.2,   0.00,   0.00, 1015.4,    0.0, -999.0
26-09-2023, 00:44:50,    137,    0.4,   11.2,   0.00,   0.00, 1015.4,    0.5, -999.0
26-09-2023, 00:45:00,    141,    0.0,   11.1,   0.00,   0.00, 1015.3,    0.1, -999.0
26-09-2023, 00:45:10,    142,    0.0,   11.1,   0.00,   0.00, 1015.3,    0.4, -999.0
26-09-2023, 00:45:20,    142,    0.0,   11.1,   0.00,   0.00, 1015.3,    0.3, -999.0
26-09-2023, 00:45:30,    139,    0.0,   11.1,   0.00,   0.00, 1015.3,    0.3, -999.0
26-09-2023, 00:45:40,    139,    0.0,   11.1,   0.00,   0.00, 1015.3,    0.2, -999.0
26-09-2023, 00:45:50,    139,    0.0,   11.1,   0.00,   0.00, 1015.3,    0.3, -999.0
26-09-2023, 00:46:00,    139,    0.0,   11.0,   0.00,   0.00, 1015.3,    0.4, -999.0
26-09-2023, 00:46:10,    140,    0.0,   11.0,   0.00,   0.00, 1015.3,    0.2, -999.0
26-09-2023, 00:46:20,    139,    0.0,   11.1,   0.00,   0.00, 1015.3,    0.3, -999.0
26-09-2023, 00:46:30,    139,    0.0,   11.0,   0.00,   0.00, 1015.3,    0.4, -999.0
26-09-2023, 00:46:40,    139,    0.0,   11.0,   0.00,   0.00, 1015.3,    0.4, -999.0
26-09-2023, 00:46:50,    140,    0.0,   11.0,   0.00,   0.00, 1015.3,    0.2, -999.0